Location: Elstree
(51.6403°N, 0.2969°W)
Time: 14:35:58
(UTC+00:00)

Cosmos 1354 Rocket - Pass Details

Date: 23 June 2021
Orbit: 764 x 783 km, 74.0° (Epoch: 25 July)

Event Time Altitude Azimuth Distance (km) Brightness Sun altitude
Rises 23:21:05 0° 325° (NW) 3,284 8.5 -14.4°
Reaches altitude 10° 23:24:02 10° 309° (NW) 2,351 7.2 -14.4°
Maximum altitude 23:27:50 20° 264° (W) 1,744 5.9 -14.5°
Enters shadow 23:31:30 10° 219° (SW) 2,308 6.1 -14.6°
